Погода в Консельейру-Лафаети

Бразилия     20°39′35″S   43°47′08″W
темп.,
°C
ветер,
м/с
пор.,
м/с
влажн.,
%
обл.,
%
осадки,
мм/ч
давл.,
гПа
погр.,
м
28 сентября, вт
вт2800:00+16вюв26951 0.0 1020168
03:00+16вюв239947 0.0 1019100
06:00+16в249379 0.0 1019276
09:00+21в127463 0.0 1020598
12:00+27ю334680 0.1 10171386
15:00+28юз4336100 0.2 10132176
18:00+21ссв246631 0.4 1014101
21:00+18юв228130 0.4 101626
29 сентября, ср
ср2900:00+16вюв11870 0.0 101612
03:00+15юв119258 0.0 101511
06:00+15св00931 0.0 101613
09:00+26ссв23450 0.0 1015761
12:00+32зсз462612 0.0 10123369
15:00+25юв234679 0.1 101076
18:00+23всв345456 0.3 101283
21:00+19всв4108270 1.1 1014311
30 сентября, чт
чт3000:00+18ююв118626 0.0 101433
03:00+17вюв119182 0.1 101311
06:00+17юв119231 0.0 101516
09:00+24в33575 0.0 1015696
12:00+31юв333214 0.0 10122353
15:00+28юв553828 0.0 1009779
18:00+20св22816 0.6 101246
21:00+19зюз118887 2.1 101616
1 октября, пт
пт100:00+18вюв389123 0.0 1015253
03:00+16юв229946 0.0 101462
06:00+17в129584 0.0 1015209
09:00+24в12591 0.0 1015542
12:00+34зсз13265 0.0 10102330
15:00+34зсз432264 0.0 10063451
18:00+24в51054100 0.0 1010449
21:00+19юв5993100 3.1 1015455
2 октября, сб
сб200:00+18вюв2493100 0.2 1014252
03:00+17в249885 0.4 1012153
06:00+17в259742 0.0 1014249
09:00+26всв23531 0.0 1013736
12:00+35зсз352575 0.0 10093225
15:00+31ссз143091 0.1 10061899
18:00+25вюв5853100 0.1 1008293
21:00+19юв51194100 0.2 1013500